Flag for Germany Weather past 2 weeks in Lünen, North Rhine-Westphalia, Germany

Now
57 °F

Thundershowers. Scattered clouds.


Feels Like: 55 °F
Forecast: 47 / 63 °F
Wind: 10 mph from Southwest

Location: Dortmund / Wickede

Current Time: Aug 23, 2014 at 11:37:43 AM

Latest Report: Aug 23, 2014 at 11:20 AM


Visibility: N/A

Pressure: 29.92 "Hg

Humidity: 72%

Dew point: 48 °F

Location of LünenLocation

Historic Weather in Lünen — Graph

°F

Lünen temperature yesterday

Maximum temperature yesterday: 64 °F (at 12:20 PM)
Minimum temperature yesterday: 52 °F (at 5:20 AM)
Average temperature yesterday: 58 °F

Past Weeks' High & Low Weather Summary

 TemperatureHumidityPressure
High79 °F (Aug 8, 1:20 PM)94% (Aug 15, 7:20 AM)30.09 "Hg (Aug 15, 7:20 AM)
Low46 °F (Aug 21, 5:20 AM)42% (Aug 8, 3:20 PM)29.59 "Hg (Aug 10, 7:20 PM)
Average61 °F70%29.86 "Hg
* Reported Aug 8 10:20 AM — Aug 23 10:20 AM, Lünen, Weather by CustomWeather, © 2014

Note: Actual official high and low records may vary slightly from our data, if they occured in-between our weather recording intervals... More about our weather records

Advertising

Lünen weather history for previous 24 hours

 ConditionsComfort  
Time TempWeatherWind HumidityBarometerVisibility
10:20 AM
Aug 23
59 °FScattered clouds.7 mph72%29.92 "HgN/A
9:50 AM57 °FPassing clouds.7 mph82%29.92 "HgN/A
9:20 AM55 °FPassing clouds.7 mph82%29.92 "HgN/A
8:50 AM55 °FScattered clouds.7 mph82%29.92 "HgN/A
8:20 AM54 °FSunny.7 mph88%29.92 "Hg10 mi
7:50 AM52 °FSunny.7 mph88%29.89 "Hg10 mi
7:20 AM52 °FPassing clouds.7 mph88%29.89 "HgN/A
6:50 AM52 °FPassing clouds.9 mph88%29.89 "Hg4 mi
6:20 AM50 °FPassing clouds.7 mph94%29.89 "HgN/A
5:50 AM50 °FPassing clouds.7 mph88%29.89 "HgN/A
5:20 AM50 °FPassing clouds.6 mph88%29.89 "HgN/A
9:50 PM
Aug 22
54 °FClear.12 mph88%29.89 "Hg10 mi
9:20 PM54 °FSunny.10 mph88%29.89 "Hg10 mi
8:50 PM54 °FSunny.10 mph88%29.89 "Hg10 mi
8:20 PM55 °FSprinkles. Broken clouds.10 mph82%29.89 "Hg5 mi
7:50 PM55 °FSprinkles. Mostly cloudy.13 mph82%29.89 "Hg4 mi
7:20 PM57 °FSprinkles. Partly sunny.7 mph77%29.86 "HgN/A
6:50 PM57 °FSunny.8 mph77%29.86 "Hg10 mi
6:20 PM59 °FSprinkles. Partly sunny.9 mph72%29.86 "HgN/A
5:50 PM61 °FSprinkles. Partly sunny.10 mph63%29.86 "HgN/A
5:20 PM61 °FSunny.8 mph68%29.86 "Hg10 mi
4:50 PM63 °FScattered showers. Partly sunny.8 mph56%29.86 "HgN/A
4:20 PM63 °FSunny.13 mph56%29.86 "Hg10 mi
3:50 PM63 °FSprinkles. Sunny.14 mph59%29.86 "Hg10 mi
3:20 PM64 °FScattered clouds.15 mph52%29.86 "HgN/A
2:50 PM63 °FScattered clouds.13 mph56%29.86 "HgN/A
2:20 PM63 °FSunny.18 mph52%29.86 "Hg10 mi
1:50 PM64 °FScattered clouds.17 mph52%29.86 "HgN/A
1:20 PM64 °FScattered clouds.13 mph56%29.89 "HgN/A
12:50 PM64 °FScattered clouds.18 mph49%29.89 "HgN/A
12:20 PM64 °FScattered clouds.15 mph52%29.89 "HgN/A
11:50 AM63 °FMild.15 mph59%29.89 "HgN/A
11:20 AM63 °FSunny.14 mph56%29.89 "Hg10 mi
Weather by CustomWeather, © 2014

See weather overviewHow to use our weather pages